Weather in Jatiwangi

Indonesia     6°45′55″S   108°10′12″E
temp.,
°C
wind,
m/s
gust,
m/s
humid.,
%
clouds,
%
prec.,
mm/h
press.,
hPa
HPBL,
m
18 april, sun
sun1801:00+23ssw228899 0.3 101325
04:00+22s228643 0.0 101228
07:00+24ssw2281100 0.0 101377
10:00+29nne1157100 0.0 1014839
13:00+30n2154100 0.1 10111415
16:00+29n3264100 0.4 1010870
19:00+25e1187100 1.1 101211
22:00+24s118966 0.1 101316
19 april, mon
mon1901:00+23s22885 0.1 101223
04:00+23ssw218851 0.0 101122
07:00+24ssw11822 0.0 101397
10:00+30nnw226113 0.0 10121097
13:00+31n325835 0.1 10091256
16:00+28nne337525 2.3 1008346
19:00+25ese008735 4.3 101112
22:00+24s11915 2.2 101224
20 april, tue
tue2001:00+23s22905 3.1 101033
04:00+23s228963 0.1 101039
07:00+24s238432 0.1 1012143
10:00+30ese12498 0.0 10121326
13:00+32nne3347100 0.0 10091789
16:00+29nne3361100 0.1 1008748
19:00+25e118335 0.4 101111
22:00+24s22861 0.0 101338
21 april, wed
wed2101:00+23s22865 0.0 101150
04:00+22s22864 0.0 101141
07:00+24s23808 0.0 1013107
10:00+30ne125023 0.0 10121146
13:00+32n33495 0.0 10091609
16:00+30ne436133 0.0 1008803
19:00+25ese118235 0.1 101121
22:00+24s23825 0.0 101384
22 april, thu
thu2201:00+22s22853 0.0 101149
04:00+22s33855 0.0 101163
07:00+23s23805 0.0 1012127
10:00+31ene124594 0.0 10121280
13:00+32n334230 0.0 10091701
16:00+30nne335364 0.0 1008840
19:00+25sse11775 0.0 101118
22:00+23s22815 0.0 101242